Simultaneous Nadir Overpasses (SNOs) Predictions

Prediction of SNOs between AQUA and NOAA-19 Satellite Orbit:

Table of predicted SNOs for the next 14.0 days since TLE Epoch: 2/13/2021
Index Date (AQUA) Time (AQUA) Lat,Lon (AQUA) SZA (AQUA ) Date (NOAA-19) Time (NOAA-19) Lat,Lon (NOAA-19) SZA (NOAA-19 ) Distance(km) Time Diff (sec)
1 02/15/2021 00:30:23 79.14, 147.82 92.99 02/15/2021 00:30:14 79.14, 147.90 92.99 1.84 9
2 02/17/2021 06:04:07 -79.12,-115.53 87.81 02/17/2021 06:03:26 -79.12,-115.46 87.80 1.54 41
3 02/17/2021 06:53:34 79.14, 52.00 92.21 02/17/2021 06:54:26 79.16, 52.06 92.20 2.08 52
4 02/19/2021 11:37:51 79.11, -18.89 91.39 02/19/2021 11:36:40 79.09, -18.94 91.40 2.39 71
5 02/19/2021 12:27:18 -79.13, 148.64 88.60 02/19/2021 12:27:39 -79.13, 148.58 88.61 1.19 21
6 02/21/2021 18:01:02 79.12,-114.74 90.58 02/21/2021 18:00:52 79.11,-114.81 90.58 2.27 10
7 02/23/2021 23:34:46 -79.11, -18.13 90.25 02/23/2021 23:34:05 -79.11, -17.96 90.26 3.70 41
8 02/24/2021 00:24:13 79.13, 149.40 89.76 02/24/2021 00:25:04 79.12, 149.33 89.74 2.32 51
9 02/26/2021 05:08:29 79.07, 78.71 88.85 02/26/2021 05:07:17 79.08, 78.58 88.90 2.96 72



Historial Predications of SNOs between AQUA and NOAA-19
